Regional Weather Roundup
Issued by NWS

Home | Current Version | Previous Version | Text Only | Print | Product List | Glossary On
Versions: 1 2 3 4 5 6 7 8 9 10 11 12 13 14 15 16 17 18 19 20 21 22 23 24 25 26 27 28
000
ASUS42 KTBW 180110
RWRFL
FLORIDA REGIONAL WEATHER ROUNDUP
NATIONAL WEATHER SERVICE TAMPA BAY RUSKIN FL
900 PM EDT THU APR 17 2014

NOTE: "FAIR" INDICATES FEW OR NO CLOUDS BELOW 12,000 FEET WITH NO
SIGNIFICANT WEATHER AND/OR OBSTRUCTIONS TO VISIBILITY.


FLZ001>010-012>015-112-114-115-180200-
PANHANDLE FLORIDA

CITY           SKY/WX    TMP DP  RH WIND       PRES   REMARKS
PENSACOLA      CLOUDY    68  55  63 NE9       30.14R
PENSACOLA NAS  CLOUDY    68  57  68 NE12      30.13S
MILTON NAS     CLOUDY    66  54  65 NE9       30.15S
CRESTVIEW      CLOUDY    67  55  65 E12       30.17F
DUKE FIELD     CLOUDY    66  56  69 E9        30.15F
VALPARAISO     CLOUDY    68  57  69 E13G23    30.14F
MARY ESTHER    CLOUDY    67  52  57 NE13G20   30.12F
TRI COUNTY     LGT RAIN  64  56  75 E8        30.19F
PANAMA CITY    CLOUDY    67  56  67 NE12G21   30.14F
TYNDALL AFB    CLOUDY    66  61  82 E15G24    30.14F
APALACHICOLA   LGT RAIN  65  60  84 NE12G23   30.14F

STATION/POSITION SKY/WX   TEMP    WIND        PRES    WAVE   SWELL
                          AIR SEA DIR/SP/G            HT/PER HT/PER
                          (F)     (DEG/KT/KT) (MB)    (FT/S) (FT/S)
30.1N   87.6W              67 66   50/ 16/ 17 1020.1S   5/ 8   2/ 8
29.2N   88.2W              66 71   60/ 19/ 23 1019.9R
28.8N   86.0W              67 68   70/ 27/ 31 1018.0F  10/ 8
PANAMA CITY BEAC           66 67   70/  8/ 15 1020.1F
CAPE SAN BLAS    NOT AVBL
TOWER C                    65      60/ 24/ 26 1020.0F
28.5N   84.5W              70 69   80/ 21/ 25 1019.0R   4/ 5

$$
FLZ011-016>038-118-127-128-134-139-239-180200-
NORTH FLORIDA

CITY           SKY/WX    TMP DP  RH WIND       PRES   REMARKS
MARIANNA       CLOUDY    64  58  80 E8        30.20F
TALLAHASSEE    CLOUDY    65  58  78 E7        30.22S
PERRY          CLOUDY    64  59  82 NE8G20    30.21S
CROSS CITY       N/A     68  60  75 NE9G20    30.20R
GAINESVILLE    CLOUDY    65  60  84 NE9       30.23R
MAYPORT NAS    CLOUDY    65  61  87 NE20      30.26R
JACKSONVILLE   LGT RAIN  62  61  96 NE12      30.26S
JAX NAS        MOCLDY    66  61  84 NE15      30.26R
JAX CRAIG      CLOUDY    66  61  84 NE16G22   30.26S
JAX CECIL      CLOUDY    63  59  88 NE13      30.25S
FERNANDINA BEA CLOUDY    64  59  82 NE18G25   30.26R
ST AUGUSTINE   MOCLDY    66  63  90 NE12      30.24S

STATION/POSITION SKY/WX   TEMP    WIND        PRES    WAVE   SWELL
                          AIR SEA DIR/SP/G            HT/PER HT/PER
                          (F)     (DEG/KT/KT) (MB)    (FT/S) (FT/S)
SHELL POINT                64      40/  5/ 11 1021.1F
KEATON BEACH               66      60/ 15/ 21 1021.8F
CEDAR KEY                  70      80/ 16/ 18 1022.2R
FERNANDINA                 64 66   50/  6/ 14 1024.6R
30.7N   81.3W                 64                N/A     7/ 7   2/11
MAYPORT                    64 65   50/ 19/ 23   N/A
31.4N   80.9W              64 64   50/ 23/ 27 1025.4R   7/ 7   3/ 9
ST AUGUSTINE               66      30/ 14/ 14 1024.2S

$$
FLZ040-043>046-052-053-057-058-063-144-180200-
INTERIOR CENTRAL FLORIDA

CITY           SKY/WX    TMP DP  RH WIND       PRES   REMARKS
OCALA          PTCLDY    70  55  60 E7        30.21R
THE VILLAGES     N/A     70  61  73 NE9       30.19R
LEESBURG       PTCLDY    71  61  70 NE9       30.20R
SANFORD        PTCLDY    69  62  78 NE10      30.19R
ORLANDO EXEC   PTCLDY    71  62  73 NE10G17   30.18R
ORLANDO INTL   MOCLDY    72  64  76 NE13      30.18R
KISSIMMEE      CLOUDY    72  66  83 MISG      30.18
WINTER HAVEN   CLOUDY    72  64  76 E13       30.17R
LAKELAND       CLOUDY    72  63  73 NE14G22   30.16R
BARTOW         CLOUDY    70  66  88 NE10      30.17R
OKEECHOBEE     CLOUDY    72  68  88 E8        30.13R

$$
FLZ041-047-054-059-064-141-147-180200-
EAST CENTRAL FLORIDA

CITY           SKY/WX    TMP DP  RH WIND       PRES   REMARKS
DAYTONA BEACH  MOCLDY    69  63  81 NE9       30.22R
JFK SPACE CTR  MOCLDY    72  66  83 E13       30.18R
TITUSVILLE     MOCLDY    72  66  83 E17       30.18R
CAPE CANAVERAL PTCLDY    70  67  89 E8        30.17S
PATRICK AFB    PTCLDY    73  68  85 NE17      30.15S
MELBOURNE      PTCLDY    73  67  81 E16       30.14F
VERO BEACH     CLOUDY    74  69  85 E14G24    30.14R
FT PIERCE      CLOUDY    75  67  76 E14G20    30.13R
STUART         CLOUDY    72  70  94 NE18G25   30.12F

STATION/POSITION SKY/WX   TEMP    WIND        PRES    WAVE   SWELL
                          AIR SEA DIR/SP/G            HT/PER HT/PER
                          (F)     (DEG/KT/KT) (MB)    (FT/S) (FT/S)
28.5N   80.2W              74 75   80/ 19/ 23 1021.4R
28.9N   78.5W              73 76   60/ 19/ 23 1022.3R   9/ 9   5/ 9
TRIDENT PIER               72 74   70/ 11/ 16 1020.8F
28.4N   80.5W                 73                N/A     5/ 8   2/11
27.6N   80.2W                 73                N/A     7/ 8   2/12

$$
FLZ050-056-061-142-242-148-248-149-249-151-251-155-255-
160-260-180200-
WEST CENTRAL FLORIDA

CITY           SKY/WX    TMP DP  RH WIND       PRES   REMARKS
CRYSTAL RIVER  CLOUDY    72  57  60 E17       30.16F
INVERNESS      CLOUDY    70  55  60 E8        30.19R
BROOKSVILLE    CLOUDY    72  58  61 E15G22    30.15R
ZEPHYRHILLS    FAIR      70  59  68 NE9       30.17R
CLEARWATER     CLOUDY    74  63  68 E15G23    30.13R
TAMPA INTL     CLOUDY    74  62  66 VRB7G18   30.15R
TAMPA EXEC     CLOUDY    73  63  68 E10G16    30.15R
PLANT CITY     CLOUDY    73  66  78 E10G16    30.17R
MACDILL AFB    DRIZZLE   73  68  83 E18G25    30.14R
PETER O KNIGHT CLOUDY    75  64  69 E13G23    30.15R
ST PETERSBURG  HVY RAIN  72  68  87 E24       30.13R FOG
SARASOTA       LGT RAIN  70  66  87 E12       30.11R
VENICE         FAIR      68  66  94 NE12      30.12R

STATION/POSITION SKY/WX   TEMP    WIND        PRES    WAVE   SWELL
                          AIR SEA DIR/SP/G            HT/PER HT/PER
                          (F)     (DEG/KT/KT) (MB)    (FT/S) (FT/S)
CEDAR KEY                  70      80/ 16/ 18 1022.2R
28.5N   84.5W              70 69   80/ 21/ 25 1019.0R   4/ 5
27.3N   84.3W                 72                N/A     4/ 5
CLEARWATER BEACH           74 73   70/ 13/ 17 1019.7R
MIDDLE TAMPA BAY           71     100/ 15/ 17 1020.7R
VENICE                     69 74   60/ 10/ 14 1019.1R

$$
FLZ066-069-070-075>078-162-262-165-265-180200-
SOUTHWEST FLORIDA AND KEYS

CITY           SKY/WX    TMP DP  RH WIND       PRES   REMARKS
PUNTA GORDA    MOCLDY    72  69  90 NE13      30.12R
FT MYERS       CLOUDY    74  70  87 E10       30.09R
SOUTHWEST INTL MOCLDY    73  71  93 E9        30.10R
NAPLES         MOCLDY    73  73 100 NE12      30.08R
MARATHON       PTCLDY    80  73  79 E13       30.04R
KEY WEST NAS   MOCLDY    79  72  79 E17       30.03R
KEY WEST INTL  PTCLDY    79  73  82 E13G23    30.03R

STATION/POSITION SKY/WX   TEMP    WIND        PRES    WAVE   SWELL
                          AIR SEA DIR/SP/G            HT/PER HT/PER
                          (F)     (DEG/KT/KT) (MB)    (FT/S) (FT/S)
VENICE                     69 74   60/ 10/ 14 1019.1R
NAPLES                     73 76   70/  8/ 12 1018.7R
26.0N   85.6W              76 80   90/ 16/ 17 1016.5R   4/ 7
DRY TORTUGAS     NOT AVBL
NW FL BAY                  81      90/ 20/ 23 1017.0F
SOMBRERO KEY               78      80/ 18/ 20 1017.6R
LONG KEY                   79 82  100/ 18/ 19 1018.3R
MOLASSES REEF              78 78   90/ 19/ 21 1017.4R

$$
FLZ067-068-071>074-168-172>174-180200-
SOUTHEAST FLORIDA

CITY           SKY/WX    TMP DP  RH WIND       PRES   REMARKS
W PALM BEACH   CLOUDY    76  70  82 E15G28    30.08S
FT LAUDER-EXEC PTCLDY    75  71  87 E14G26    30.07S
FT LAUDERDALE  MOCLDY    78  73  84 E15       30.07R
POMPANO BEACH  MOCLDY    77  73  87 E14       30.08R
PEMBROKE PINES PTCLDY    77  72  84 E13       30.09R
OPA LOCKA      MOCLDY    76  71  85 E12       30.08R
MIAMI          MOCLDY    78  71  79 E20       30.08R
WEST KENDALL   PTCLDY    77  71  82 E15       30.07R
HOMESTEAD      PTCLDY    77  69  76 E12       30.07R

STATION/POSITION SKY/WX   TEMP    WIND        PRES    WAVE   SWELL
                          AIR SEA DIR/SP/G            HT/PER HT/PER
                          (F)     (DEG/KT/KT) (MB)    (FT/S) (FT/S)
PORT EVERGLADES            77      70/ 13/ 17 1018.4
VIRGINIA KEY               78 80   70/ 16/ 20 1018.3R
LAKE WORTH                 76 77   60/ 20/ 23 1018.3F
FOWEY ROCKS                77 79   70/ 19/ 21 1018.3R
SETTLEMENT POINT           76      60/ 21/ 24 1019.6F

$$




USA.gov is the U.S. government's official web portal to all federal, state and local government web resources and services.